Weather History for KPNE - February, 2013

Change the Weather History Date:

Saturday, February 9, 2013

  Actual Average Record
Temperature  
Mean Temperature 28 °F -  
Max Temperature 33 °F 40 °F 61 °F (2001)
Min Temperature 21 °F 24 °F 14 °F (2011)
Degree Days  
Heating Degree Days 37    
Moisture  
Dew Point 19 °F    
Average Humidity 69    
Maximum Humidity 96    
Minimum Humidity 41    
Precipitation  
Precipitation 0.15 in - - ()
Sea Level Pressure  
Sea Level Pressure 30.04 in    
Wind  
Wind Speed 15 mph (NW)    
Max Wind Speed 26 mph    
Max Gust Speed 37 mph    
Visibility 6 miles    
Events Fog , Snow    
Averages and records for this station are not official NWS values.
T = Trace of Precipitation, MM = Missing Value Source: NWS Daily Summary

Daily Weather History Graph

Daily Weather History Graph

Search for Another Location

Airport or City:

Trip Planner

Search our weather history database for the weather conditions in past years. The results will help you decide how hot, cold, wet, or windy it might be!

Date:

Astronomy

Feb. 09, 2013 Rise Set
Actual Time 7:00 AM EST 5:29 PM EST
Civil Twilight 6:31 AM EST 5:57 PM EST
Nautical Twilight 5:59 AM EST 6:29 PM EST
Astronomical Twilight 5:28 AM EST 7:00 PM EST
Moon 6:10 AM EST (2/9) 5:08 PM EST (2/9)
Length of Visible Light 11h 25m
Length of Day
10h 28m
Waning Crescent, 0% of the Moon is Illuminated
Feb 9
Waning Crescent
Feb 10
New
Feb 17
First Quarter
Feb 25
Full
Mar 4
Last Quarter

Hourly Weather History & Observations

Time (EST) Temp. Windchill Dew Point Humidity Pressure Visibility Wind Dir Wind Speed Gust Speed Precip Events Conditions
12:06 AM 33.8 °F 24.8 °F 30.2 °F 87% 29.80 in 2.0 mi NNW 12.7 mph 23.0 mph 0.00 in Snow Light Snow
12:13 AM 32.0 °F 21.6 °F 30.2 °F 93% 29.81 in 1.2 mi NNW 15.0 mph - 0.00 in Snow Light Snow
12:54 AM 32.0 °F 24.8 °F 30.9 °F 96% 29.81 in 1.8 mi NNW 8.1 mph - 0.00 in Snow Light Snow
12:59 AM 32.0 °F 25.6 °F 28.4 °F 87% 29.81 in 0.8 mi NNW 6.9 mph - 0.00 in Snow Light Snow
1:11 AM 32.0 °F 26.4 °F 30.2 °F 93% 29.81 in 0.2 mi NW 5.8 mph - 0.02 in Fog , Snow Heavy Snow
1:54 AM 33.1 °F 23.9 °F 30.9 °F 92% 29.82 in 1.0 mi WNW 12.7 mph 24.2 mph 0.04 in Snow Light Snow
2:17 AM 32.0 °F 21.2 °F 30.2 °F 93% 29.83 in 2.0 mi NW 16.1 mph 25.3 mph 0.00 in Snow Light Snow
2:26 AM 30.2 °F 16.5 °F 26.6 °F 86% 29.83 in 2.5 mi NW 24.2 mph 29.9 mph 0.00 in Snow Light Snow
2:37 AM 30.2 °F 18.9 °F 28.4 °F 93% 29.84 in 1.2 mi NW 16.1 mph 32.2 mph 0.00 in Snow Light Snow
2:54 AM 28.9 °F 16.5 °F 27.0 °F 92% 29.85 in 1.0 mi NW 18.4 mph 25.3 mph 0.00 in Snow Light Snow
3:38 AM 28.4 °F 15.4 °F 24.8 °F 86% 29.88 in 2.0 mi NW 19.6 mph 33.4 mph 0.00 in Snow Light Snow
3:54 AM 27.0 °F 13.2 °F 23.0 °F 85% 29.90 in 2.0 mi NW 20.7 mph 33.4 mph 0.00 in Snow Light Snow
4:08 AM 26.6 °F 12.4 °F 21.2 °F 80% 29.90 in 3.0 mi NW 21.9 mph 33.4 mph 0.00 in Snow Light Snow
4:54 AM 26.1 °F 14.5 °F 21.0 °F 81% 29.93 in 6.0 mi NW 13.8 mph 25.3 mph 0.00 in Snow Light Snow
5:54 AM 25.0 °F 12.6 °F 19.0 °F 78% 29.96 in 10.0 mi NW 15.0 mph 24.2 mph 0.00 in   Overcast
6:54 AM 24.8 °F 12.4 °F 17.6 °F 74% 30.00 in 10.0 mi NW 15.0 mph 25.3 mph N/A   Overcast
7:54 AM 25.0 °F 13.1 °F 17.1 °F 72% 30.04 in 9.0 mi NW 13.8 mph 27.6 mph N/A   Overcast
8:54 AM 26.1 °F 13.1 °F 17.1 °F 69% 30.06 in 8.0 mi NW 17.3 mph 29.9 mph N/A   Scattered Clouds
9:54 AM 27.0 °F 13.5 °F 16.0 °F 63% 30.07 in 5.0 mi NW 19.6 mph 33.4 mph 0.00 in   Clear
10:54 AM 28.9 °F 16.9 °F 17.1 °F 61% 30.11 in 10.0 mi NW 17.3 mph 32.2 mph 0.11 in   Clear
11:54 AM 30.9 °F 16.9 °F 16.0 °F 54% 30.13 in 10.0 mi NW 26.5 mph 36.8 mph N/A   Clear
12:54 PM 32.0 °F 19.2 °F 16.0 °F 52% 30.13 in 10.0 mi NNW 23.0 mph 33.4 mph N/A   Clear
1:54 PM 32.0 °F 18.9 °F 15.1 °F 50% 30.17 in 10.0 mi NNW 24.2 mph 28.8 mph N/A   Clear
2:54 PM 33.1 °F 21.9 °F 14.0 °F 46% 30.17 in 10.0 mi NNW 18.4 mph 27.6 mph N/A   Clear
3:54 PM 33.1 °F 22.2 °F 12.0 °F 42% 30.20 in 10.0 mi NNW 17.3 mph 27.6 mph N/A   Clear
4:54 PM 32.0 °F 20.5 °F 10.9 °F 42% 30.22 in 10.0 mi NW 18.4 mph 26.5 mph N/A   Clear
5:54 PM 30.0 °F 20.0 °F 9.0 °F 41% 30.26 in 10.0 mi NW 12.7 mph - N/A   Clear
6:54 PM 28.9 °F 16.5 °F 8.1 °F 41% 30.27 in 10.0 mi NW 18.4 mph 24.2 mph N/A   Clear
7:54 PM 28.0 °F 18.6 °F 8.1 °F 43% 30.32 in 10.0 mi NNW 10.4 mph 16.1 mph N/A   Clear
8:54 PM 26.1 °F 14.5 °F 8.1 °F 47% 30.35 in 10.0 mi NNW 13.8 mph 18.4 mph N/A   Clear
9:54 PM 25.0 °F 16.3 °F 7.0 °F 46% 30.37 in 10.0 mi NW 8.1 mph - N/A   Clear
10:54 PM 23.0 °F 13.1 °F 8.1 °F 53% 30.39 in 10.0 mi North 9.2 mph - N/A   Clear
11:54 PM 21.9 °F 9.8 °F 8.1 °F 55% 30.40 in 10.0 mi NNW 12.7 mph - N/A   Clear